sat.trackr.live / text

‹ back to catalog

STARLINK-37444

NORAD 68817 · 2026-089R

PAYLOAD ACTIVE UNKNOWN

§ Identity

Operator
Country
US
Launch date
2026-04-23
Launch site
AFWTR
Launch vehicle
Mass (kg)
RCS (m²)

Purposes: comms

External: N2YO · Heavens-Above · Gunter

§ Orbital elements

Epoch: 2026-09-20T00:03:03.492864Z

Period
93.91 min
Inclination
97.2835°
Eccentricity
0.0002606
Mean motion
15.33449845 rev/d
Perigee alt
463.7 km
Apogee alt
467.3 km
Semi-major
6,843.7 km
B*
6.7045e-4
RAAN
108.7854°
Arg perigee
84.4774°
Mean anomaly
275.6765°
Rev number
2,318

§ Raw data

STARLINK-374441 68817U 26089R   26263.00212376  .00021637  00000+0  67045-3 0  99982 68817  97.2835 108.7854 0002606  84.4774 275.6765 15.33449845 23185

JSON: /api/v1/satellites/68817 · /tle

For live sub-satellite position, see the globe view (requires WebGL).

§ Visibility from observer

Set your observer location to see the next 7 days of passes ≥ 10°. The values pass through the URL so the page stays shareable.

No JS? Fill the form by hand. The geolocation button needs JavaScript.